SCP
0 0 0 0 0 0 0 0 0 0 0 0 0 0 0 0 0 1 1 1 0 0 0 0 0 1 1 1 1 1 1 1 2 2 1 1 1 0 0 1 1 1 1 1
0 0 0 0 0 0 0 0 0 0 0 0 0 0 0 0 0 1 1 1 0 0 0 0 1 1 1 1 1 1 1 1 1 1 1 1 0 0 0 0 0 0 0 0
0 0 0 0 0 0 0 0 0 0 0 0 0 0 0 0 0 0 0 0 0 0 0 1 1 1 1 1 1 1 1 1 1 1 1 0 0 0 0 0 0 0 0 0
0 0 0 0 0 0 0 0 0 0 0 0 0 0 0 0 0 0 0 0 0 0 0 1 1 1 1 1 1 1 1 1 1 1 1 0 0 0 0 0 0 0 0 0
0 0 0 0 0 0 0 0 0 0 0 0 0 0 0 0 0 0 0 0 0 0 0 0 1 1 1 1 1 1 1 1 1 1 1 0 0 0 0 0 0 0 0 0
0 0 0 0 0 0 0 0 0 0 0 0 0 0 0 0 0 0 0 0 0 0 0 0 0 0 0 1 1 1 1 1 1 1 0 0 0 0 0 0 0 0 0 0
0 0 0 0 0 0 0 0 0 0 0 0 0 0 0 0 0 0 0 0 0 0 0 0 0 0 0 0 0 0 0 0 0 0 0 0 0 0 0 0 0 0 0 0
0 0 0 0 0 0 0 0 0 0 0 0 0 0 0 0 0 0 0 0 0 0 0 0 0 0 0 0 0 0 0 0 0 0 0 0 0 0 0 0 0 0 0 0
0 0 0 0 0 0 0 0 0 0 0 0 0 0 0 0 0 0 0 0 0 0 0 0 0 0 0 0 0 0 0 0 0 0 0 0 0 0 0 0 0 0 0 0
0 0 0 0 0 0 0 0 0 0 0 0 0 0 0 0 0 0 0 0 0 0 0 0 0 0 0 0 0 0 0 0 0 0 0 0 0 0 0 0 0 0 0 0
0 0 0 0 0 0 0 0 0 0 0 0 0 0 0 0 0 0 0 0 0 0 0 0 0 0 0 0 0 0 0 0 0 0 0 0 0 0 0 0 0 0 0 0
0 0 0 0 0 0 0 0 0 0 0 0 0 0 0 0 0 0 0 0 0 0 0 0 0 0 0 0 0 0 0 0 0 0 0 0 0 0 0 0 0 0 0 0
0 0 0 0 0 0 0 0 0 0 0 0 0 0 0 0 0 0 0 0 0 0 0 0 0 0 0 0 0 0 0 0 0 0 0 0 0 0 0 0 0 0 0 0
0 0 0 0 0 0 0 0 0 0 0 0 0 0 0 0 0 0 0 0 0 0 0 0 0 0 0 0 0 0 0 0 0 0 0 0 0 0 0 0 0 0 0 0
0 0 0 0 0 0 0 0 0 0 0 0 0 0 0 0 0 0 0 0 0 0 0 0 0 0 0 0 0 0 0 0 0 0 0 0 0 0 0 0 0 0 0 0
0 0 0 0 0 0 0 0 0 0 0 0 0 0 0 0 0 0 0 0 0 0 0 0 0 0 0 0 0 0 0 0 0 0 0 0 0 0 0 0 0 0 0 0
0 0 0 0 0 0 0 0 0 0 0 0 0 0 0 0 0 0 0 0 0 0 0 0 0 0 0 0 0 0 0 0 0 0 0 0 0 0 0 0 0 0 0 0
0 0 0 0 0 0 0 0 0 0 0 0 0 0 0 0 0 0 0 0 0 0 0 0 0 0 0 0 0 0 0 0 0 0 0 0 0 0 0 0 0 0 0 0
0 0 0 0 0 0 0 0 0 0 0 0 0 0 0 0 0 0 0 0 0 0 0 0 0 0 0 0 0 0 0 0 0 0 0 0 0 0 0 0 0 0 0 0
0 0 0 0 0 0 0 0 0 0 0 0 0 0 0 0 0 0 0 0 0 0 0 0 0 0 0 0 0 0 0 0 0 0 0 0 0 0 0 0 0 0 0 0
0 0 0 0 0 0 0 0 0 0 0 0 0 0 0 0 0 0 0 0 0 0 0 0 0 0 0 0 0 0 0 0 0 0 0 0 0 0 0 0 0 0 0 0
0 0 0 0 0 0 0 0 0 0 0 0 0 0 0 0 0 0 0 0 0 0 0 0 0 0 0 0 0 0 0 0 0 0 0 0 0 0 0 0 0 0 0 0
0 0 0 0 0 0 0 0 0 0 0 0 0 0 0 0 0 0 0 0 0 0 0 0 0 0 0 0 0 0 0 0 0 0 0 0 0 0 0 0 0 0 0 0
0 0 0 0 0 0 0 0 0 0 0 0 0 0 0 0 0 0 0 0 0 0 0 0 0 0 0 0 0 0 0 0 0 0 0 0 0 0 0 0 0 0 0 0
0 0 0 0 0 0 0 0 0 0 0 0 0 0 0 0 0 0 0 0 0 0 0 0 0 0 0 0 0 0 0 0 0 0 0 0 0 0 0 0 0 0 0 0
0 0 0 0 0 0 0 0 0 0 0 0 0 0 0 0 0 0 0 0 0 0 0 0 0 0 0 0 0 0 0 0 0 0 0 0 0 0 0 0 0 0 0 0
Wind_Speed
2 1 1 1 2 2 1 2 2 2 2 3 5 6 6 5 4 4 3 3 3 3 2 2 3 3 3 2 3 3 2 2 1 2 1 1 1 1 1 1 1 0 1 1
2 1 1 0 1 1 1 1 1 1 3 3 5 7 5 3 4 4 4 3 3 3 3 3 3 3 3 3 2 3 3 2 2 1 1 1 1 0 0 0 0 1 0 1
1 1 0 2 1 1 1 2 2 3 3 1 4 4 2 0 1 1 2 2 2 2 2 3 3 3 3 3 3 2 2 2 2 2 1 1 1 0 0 0 0 1 1 1
1 1 1 1 0 2 2 2 2 3 3 1 2 4 2 1 1 1 2 2 2 2 2 2 2 2 3 3 2 2 3 3 2 2 2 2 1 1 1 1 1 1 1 1
1 0 1 1 1 2 1 1 2 2 2 2 1 4 3 1 3 3 2 2 2 1 2 2 2 2 2 3 2 2 3 3 3 3 3 2 2 1 0 1 1 1 1 1
0 0 1 1 0 1 1 2 2 3 3 3 1 4 3 2 3 3 2 2 2 2 2 2 2 2 2 2 2 2 3 3 3 3 3 3 2 2 2 2 1 1 1 1
1 1 0 1 1 2 2 2 2 2 2 2 1 5 6 1 2 3 2 2 1 1 2 2 3 2 2 2 2 2 3 3 3 3 3 3 3 3 3 2 2 2 2 2
2 2 2 1 1 1 2 3 2 3 3 2 2 6 3 1 1 2 3 2 1 1 2 2 2 2 2 2 3 3 3 3 3 3 3 3 3 2 2 3 3 3 2 2
2 1 2 0 1 2 2 2 2 2 2 5 5 5 5 3 2 2 2 2 2 1 1 1 2 2 2 3 3 3 3 3 3 3 3 3 3 3 3 3 3 3 3 2
2 3 1 0 3 1 2 2 3 3 3 5 5 6 4 4 4 3 3 3 2 1 1 1 2 2 2 2 3 3 3 3 3 3 3 3 3 4 4 3 4 4 4 3
2 3 2 3 5 5 5 4 4 3 3 5 5 3 2 3 3 3 2 2 2 2 2 2 2 2 2 2 3 3 3 4 3 4 4 4 3 4 4 4 4 4 4 4
2 2 4 4 0 2 4 5 6 5 5 5 6 6 3 3 2 2 3 2 2 2 2 2 2 2 2 3 3 3 3 4 4 4 4 4 4 4 5 5 4 4 5 4
4 4 3 3 4 4 5 5 6 4 3 6 7 6 4 2 3 3 4 3 3 3 3 3 3 3 3 3 3 3 4 4 4 4 4 5 5 5 5 5 5 5 5 5
3 5 7 8 4 3 6 7 8 8 6 9 12 12 7 6 6 5 5 5 5 4 4 4 4 4 4 4 4 4 4 4 4 5 5 5 5 5 5 5 5 5 5 5
4 7 8 11 10 9 11 12 13 15 14 13 13 14 14 10 9 9 8 7 7 7 6 6 5 5 5 4 4 4 4 4 4 5 6 6 6 5 5 5 5 5 5 6
5 6 5 8 9 10 14 17 18 19 19 20 20 21 14 10 8 8 8 7 8 8 7 7 7 6 6 6 5 5 5 4 5 6 6 6 5 5 5 5 5 5 6 6
5 5 5 7 4 7 14 15 17 14 14 14 18 16 7 7 8 9 8 8 8 8 7 7 7 7 6 6 6 6 6 5 5 6 6 6 6 6 6 5 6 6 6 6
8 7 5 5 4 13 6 1 6 11 13 14 14 11 8 8 8 8 8 8 8 7 7 7 7 7 6 6 6 5 5 5 6 6 6 6 6 6 6 6 7 7 6 6
10 9 6 5 9 13 9 5 6 8 9 9 12 11 9 7 7 7 6 6 7 7 7 7 6 6 6 6 5 5 5 5 6 7 7 6 6 6 6 7 7 6 6 7
6 9 8 8 9 11 4 1 2 4 7 2 5 7 5 4 6 4 3 5 6 6 6 6 5 5 6 5 4 5 6 6 7 7 7 6 6 7 7 7 7 6 6 7
6 8 11 13 12 11 3 3 5 6 3 1 3 5 5 6 6 5 5 5 6 6 6 5 5 5 5 4 4 6 7 8 7 6 6 6 7 7 7 7 6 6 6 7
9 8 10 9 11 11 3 5 6 4 4 4 5 5 6 7 7 6 6 6 6 6 6 6 6 6 5 5 6 7 8 7 6 6 6 7 7 6 6 7 6 6 7 7
9 9 6 9 8 3 3 5 6 5 6 6 5 6 6 7 7 7 7 7 7 7 7 6 6 7 6 6 6 9 8 6 6 6 7 7 7 6 6 7 6 6 6 6
6 5 6 8 10 8 8 8 7 7 7 7 7 8 7 8 8 8 8 7 7 7 7 6 7 7 7 7 7 8 7 6 6 8 8 7 7 7 6 6 6 6 6 6
8 6 8 11 10 9 9 8 8 8 8 10 10 9 9 9 9 9 8 8 8 7 7 6 7 8 8 8 8 7 7 6 7 8 8 7 7 6 6 6 6 7 8 7
9 9 9 11 9 9 9 8 8 9 10 10 10 10 8 8 9 9 8 8 7 7 7 7 7 8 8 8 8 8 7 7 8 7 7 6 5 5 5 6 6 8 11 12
Wind_Direction
22 124 97 320 296 305 242 217 269 327 356 284 270 281 284 284 261 248 241 228 215 212 186 154 152 147 150 142 140 130 118 110 117 122 140 148 137 121 115 94 70 8 353 301
153 109 6 338 185 207 217 238 317 349 0 301 293 286 283 275 256 251 245 228 207 186 165 147 150 156 160 153 150 145 141 133 132 120 113 97 87 62 48 115 103 39 11 10
153 57 244 170 129 24 309 289 310 317 317 228 294 269 225 253 262 255 247 239 203 198 188 165 163 166 159 158 159 143 143 144 142 119 109 114 105 151 197 205 72 360 346 13
90 31 201 184 312 283 272 322 295 292 290 296 321 283 236 234 252 223 200 198 199 196 200 179 168 165 165 155 146 156 153 151 145 143 156 168 187 239 305 315 313 313 308 324
122 89 235 230 289 273 298 319 265 261 266 266 234 256 263 196 224 214 210 209 211 197 192 176 176 172 156 141 146 163 161 159 157 162 167 177 189 208 250 280 288 294 302 314
50 249 280 280 4 229 226 213 199 212 227 243 236 248 258 202 219 219 200 203 210 193 181 169 164 162 148 138 148 164 168 169 171 176 181 193 198 203 218 243 268 281 281 285
190 172 137 233 189 160 245 251 256 233 228 243 125 249 256 227 220 241 229 215 206 176 174 174 176 175 166 162 165 182 187 186 186 187 189 197 207 215 230 248 255 262 266 271
235 212 162 191 259 247 229 267 274 282 280 291 218 247 261 78 267 261 250 231 211 184 177 184 197 204 196 190 190 188 191 191 192 199 199 203 207 219 233 243 254 255 262 272
240 227 105 133 292 252 192 196 334 288 282 271 248 260 271 187 206 199 189 180 178 185 195 195 195 210 212 206 205 202 201 201 198 205 211 213 215 226 237 244 250 255 261 268
250 250 212 200 178 137 299 164 190 218 257 266 262 251 236 192 186 175 183 189 187 197 206 200 199 208 223 224 217 213 216 217 214 214 218 229 231 234 240 243 248 253 260 263
241 244 227 209 215 207 176 187 214 227 265 270 277 259 158 202 191 195 202 212 221 226 216 205 213 220 223 226 223 221 222 222 222 223 228 232 237 239 240 242 249 254 256 257
195 239 250 240 97 307 245 226 209 231 230 239 270 274 118 215 222 232 238 236 247 249 239 230 234 232 234 236 236 238 235 232 233 230 232 237 241 242 244 247 251 252 254 254
175 214 257 223 185 193 223 216 219 240 253 231 241 254 122 195 229 240 250 250 249 252 253 245 241 243 249 251 249 250 248 246 242 235 234 236 240 242 246 250 251 251 254 254
204 231 240 261 288 205 226 223 214 210 226 239 241 260 253 253 263 269 266 262 260 256 257 256 256 256 258 256 254 255 256 253 248 242 241 243 243 244 248 251 251 251 252 254
217 247 248 261 267 260 255 247 229 225 232 243 255 259 267 267 271 275 274 272 267 261 258 259 264 267 268 267 263 259 258 254 247 244 244 247 250 248 247 249 250 252 252 254
220 247 255 263 258 258 262 252 242 240 243 248 259 267 269 275 275 273 271 269 263 263 262 263 266 267 266 265 265 263 261 254 246 246 247 248 247 245 246 250 251 253 254 254
207 216 237 263 267 281 261 244 231 230 231 236 246 256 268 270 269 270 270 263 258 261 263 264 265 262 261 261 262 264 264 256 247 248 250 246 243 244 245 247 247 249 253 254
210 211 237 264 254 246 257 160 223 232 244 237 247 260 268 273 284 283 273 263 263 266 267 268 268 265 263 261 262 264 262 254 250 251 250 246 244 246 247 246 247 249 251 251
221 216 225 235 251 267 269 230 202 221 254 238 241 259 276 287 289 277 268 260 267 273 274 274 274 271 267 264 265 262 257 254 254 254 254 250 246 247 247 248 251 252 252 253
208 221 229 229 244 254 269 132 176 214 255 213 235 262 276 267 267 289 320 292 281 282 282 283 280 269 265 267 263 254 256 256 255 257 257 255 248 247 248 251 255 254 253 256
183 208 225 235 248 261 274 137 165 226 286 16 265 271 260 251 276 305 301 293 289 288 287 287 280 272 270 270 256 254 256 256 259 261 258 253 248 247 250 253 252 252 254 257
199 202 214 223 236 250 149 160 212 277 328 296 287 276 260 265 281 286 287 290 291 289 290 288 282 277 277 266 254 257 260 264 265 260 257 253 250 248 246 248 250 251 252 256
222 222 224 221 240 308 200 247 277 293 282 281 280 274 263 269 276 283 285 287 290 289 290 288 282 281 278 265 255 261 268 272 266 262 259 258 255 249 244 243 247 249 248 251
231 234 243 254 263 272 270 275 277 272 276 283 281 279 270 269 274 278 282 284 283 283 284 284 280 278 280 277 267 265 272 268 261 261 262 260 256 253 248 245 243 243 244 247
244 221 242 258 272 287 273 270 273 278 283 283 281 274 266 265 267 270 276 278 277 278 280 277 274 276 280 281 276 274 272 267 261 261 261 259 254 254 253 250 247 246 248 247
227 226 238 260 269 267 277 280 279 278 279 282 282 278 271 263 266 270 271 274 277 279 279 276 275 277 282 285 282 280 272 262 259 260 259 255 253 252 254 258 262 246 248 254